Regional Weather Roundup
Issued by NWS

Home | Current Version | Previous Version | Graphics & Text | Print | Product List | Glossary On
Versions: 1 2 3 4 5 6 7 8 9 10 11 12 13 14 15 16 17 18 19 20 21 22 23 24 25 26 27 28 29 30 31 32 33 34 35 36 37 38 39 40 41 42 43 44 45 46 47 48 49 50
000
ASUS43 KOAX 051210
RWRNE

WEATHER ROUNDUP FOR NEBRASKA
NATIONAL WEATHER SERVICE OMAHA NE
700 AM CDT THU MAY 05 2016

NOTES: SATELLITE DATA IS BEING USED TO AUGMENT CLOUD COVER ABOVE
       12000 FEET.
       "FAIR" INDICATES FEW OR NO CLOUDS BELOW 12,000 FEET WITH NO
       SIGNIFICANT WEATHER AND/OR OBSTRUCTIONS TO VISIBILITY.

  * THESE STATIONS DO NOT REPORT WEATHER SUCH AS RAIN...SNOW OR FOG.

NEZ001>004-019>022-054>056-051300-
NEBRASKA PANHANDLE

CITY           SKY/WX    TMP DP  RH WIND       PRES   REMARKS
SCOTTSBLUFF    CLEAR     47  39  74 E7        30.06S
6HR MIN TEMP:  46; 6HR MAX TEMP:  52;

ALLIANCE       CLEAR     39  38  96 SE8       30.06S WCI  33
6HR MIN TEMP:  39; 6HR MAX TEMP:  47;

CHADRON        CLEAR     51  41  68 E5        29.99F
6HR MIN TEMP:  46; 6HR MAX TEMP:  60;

KIMBALL        CLOUDY    41  38  91 W8        30.11S
SIDNEY         CLEAR     46  40  79 SW10      30.09R
6HR MIN TEMP:  43; 6HR MAX TEMP:  51;

$$

NEZ057>060-069>072-079>082-051300-
SOUTHWEST NEBRASKA

CITY           SKY/WX    TMP DP  RH WIND       PRES   REMARKS
NORTH PLATTE   CLEAR     40  37  89 E8        30.08S WCI  34
6HR MIN TEMP:  38; 6HR MAX TEMP:  48;

IMPERIAL       CLEAR     47  41  80 CALM      30.10R
6HR MIN TEMP:  44; 6HR MAX TEMP:  52;

LEXINGTON      CLEAR     43  39  86 CALM      30.11R
MCCOOK         CLEAR     43  40  89 CALM      30.10S
6HR MIN TEMP:  42; 6HR MAX TEMP:  56;

OGALLALA       CLEAR     43  38  83 CALM      30.09S
$$

NEZ005>010-023>029-035>040-094-051300-
NORTH CENTRAL NEBRASKA

CITY           SKY/WX    TMP DP  RH WIND       PRES   REMARKS
VALENTINE      CLEAR     42  36  79 CALM      30.05S
6HR MIN TEMP:  42; 6HR MAX TEMP:  51;

AINSWORTH      CLEAR     44  38  77 S8        30.07S
BROKEN BOW     CLEAR     40  36  86 E3        30.09R
6HR MIN TEMP:  37; 6HR MAX TEMP:  43;

O`NEILL        CLEAR     46  39  76 CALM      30.08R
ORD            PTCLDY    38  35  89 CALM      30.08S
6HR MIN TEMP:  36; 6HR MAX TEMP:  44;

THEDFORD       CLEAR     44  38  79 CALM      30.09S
$$

NEZ041-046>049-061>064-073>077-083>087-051300-
SOUTH CENTRAL NEBRASKA

CITY           SKY/WX    TMP DP  RH WIND       PRES   REMARKS
GRAND ISLAND   PTCLDY    43  37  79 W8        30.11R
6HR MIN TEMP:  41; 6HR MAX TEMP:  50;

AURORA         PTCLDY    42  36  80 W6        30.10R
HASTINGS       PTCLDY    45  36  70 CALM      30.10R
6HR MIN TEMP:  42; 6HR MAX TEMP:  51;

HEBRON           N/A    N/A N/A N/A W3        30.10R
HOLDREGE       CLEAR     42  37  84 CALM      30.10S
KEARNEY *      PTCLDY    43  36  75 CALM      30.11R
YORK           CLEAR     39  36  87 NW6       30.09R WCI  35
$$

NEZ011>018-030>034-042>045-051300-
NORTHEAST NEBRASKA

CITY           SKY/WX    TMP DP  RH WIND       PRES   REMARKS
NORFOLK        CLEAR     41  36  82 CALM      30.07R
6HR MIN TEMP:  37; 6HR MAX TEMP:  48;

ALBION         CLEAR     36  33  88 NW3       30.09R
BLAIR          CLEAR     46  38  73 NW3       30.06R
COLUMBUS *     CLEAR     39  30  70 CALM      30.09R
FREMONT        CLEAR     42  39  91 NW3       30.08R
TEKAMAH        CLEAR     42  38  85 W3        30.07R
6HR MIN TEMP:  41; 6HR MAX TEMP:  51;

WAYNE          CLEAR     37  35  91 S3        30.07S
$$

NEZ050>053-065>068-078-088>093-051300-
SOUTHEAST NEBRASKA

CITY           SKY/WX    TMP DP  RH WIND       PRES   REMARKS
LINCOLN        CLEAR     43  39  86 CALM      30.09R
6HR MIN TEMP:  40; 6HR MAX TEMP:  49;

OMAHA EPPLEY   PTCLDY    43  39  86 N3        30.07R
6HR MIN TEMP:  42; 6HR MAX TEMP:  52;

BEATRICE       CLEAR     41  38  89 CALM      30.08R
FALLS CITY     CLEAR     44  39  82 NW6       30.05R
6HR MIN TEMP:  42; 6HR MAX TEMP:  49;

NEBRASKA CITY  CLEAR     47  37  67 NW7       30.07R
PLATTSMOUTH    CLEAR     46  40  80 CALM      30.06R
$$

NEZ044-045-051>053-067-051300-
OMAHA AREA

CITY           SKY/WX    TMP DP  RH WIND       PRES   REMARKS
OMAHA EPPLEY   PTCLDY    43  39  86 N3        30.07R
6HR MIN TEMP:  42; 6HR MAX TEMP:  52;

BLAIR          CLEAR     46  38  73 NW3       30.06R
FREMONT        CLEAR     42  39  91 NW3       30.08R
MILLARD        CLEAR     44  40  86 CALM      30.07R
OFFUTT AFB     CLEAR     44  42  95 W5        30.06R
PLATTSMOUTH    CLEAR     46  40  80 CALM      30.06R
WAHOO          FAIR      43  38  82 CALM      30.07R
$$



USA.gov is the U.S. government's official web portal to all federal, state and local government web resources and services.